TJS-3

Last updated on Thu Mar 05 2026 00:02:59 GMT+0000 (Coordinated Universal Time)

1 43874U 18110A 26063.85696818 -.00000228 00000+0 00000+0 0 9996 2 43874 2.2759 81.7816 0016881 345.0537 131.2773 1.00349513 26373
UTC large
Height (km)
Speed (km/s)
/
Latitude / Longitude
Inclination (degrees)
Orbital Period (minutes)
Azimuth
Elevation
Range (km)
Doppler Factor

Next 0 passes for location: London (51.5072 / 0.1276)

Sorry there are no passes over London.